Regional Weather Roundup
Issued by NWS

Home | Current Version | Previous Version | Text Only | Print | Product List | Glossary On
Versions: 1 2 3 4 5 6 7 8 9 10 11 12 13 14 15 16 17 18 19 20 21 22 23 24 25 26 27 28 29 30 31 32 33 34 35 36 37 38 39 40 41 42 43 44 45 46 47 48 49 50
000
ASUS42 KFFC 200803
RWRGA
WEATHER ROUNDUP FOR GEORGIA
NATIONAL WEATHER SERVICE PEACHTREE CITY GA
400 AM EDT SAT SEP 20 2014

NOTE: "FAIR" INDICATES FEW OR NO CLOUDS BELOW 12,000 FEET WITH NO
SIGNIFICANT WEATHER AND/OR OBSTRUCTIONS TO VISIBILITY.

* = USE WITH CAUTION. THE STATIONS MARKED WITH AN ASTERISK MAY NOT
REPORT WEATHER SUCH AS PRECIPITATION, FOG, OR THUNDER AND ARE NOT
QUALITY CONTROLLED BY NWS.

THE REMARK "TC" DENOTES TEMPERATURE READING IN DEGREES CELSIUS.

GAZ001>058-200900-
NORTH GEORGIA

CITY           SKY/WX    TMP DP  RH WIND       PRES   REMARKS
ATLANTA        PTCLDY    68  63  84 E14       30.12F
ATHENS         CLEAR     65  62  90 E7        30.14F
CHAMBLEE       PTCLDY    66  60  81 VRB3      30.13F
PEACHTREE CITY PTCLDY    68  64  87 E3        30.11F
ROME           CLEAR     64  61  90 CALM      30.13S
WEST ATLANTA   PTCLDY    68  62  81 NE8       30.12F
GAINESVILLE    PTCLDY    66  60  81 NE8       30.17F
CARTERSVILLE   CLEAR     67  61  81 CALM      30.13F


CITY           SKY/WX    TMP DP  RH WIND       PRES   REMARKS
DALTON*        CLEAR     63  61  94 CALM      30.14S
$$

GAZ059>098-102>109-200900-
CENTRAL GEORGIA

CITY           SKY/WX    TMP DP  RH WIND       PRES   REMARKS
AUGUSTA-BUSH   CLEAR     68  65  90 NE9       30.09F
AUGUSTA-DANIEL CLEAR     69  65  86 NE10      30.10F
COLUMBUS       CLEAR     70  64  81 E12       30.05F
MACON          PTCLDY    66  66 100 NE8       30.07F
ROBINS AFB     CLEAR     68  65  92 VRB3      30.06F


CITY           SKY/WX    TMP DP  RH WIND       PRES   REMARKS
LAGRANGE*      PTCLDY    71  68  90 E3        30.09S
SYLVANIA*      CLOUDY    72  71  96 NE9       30.06F
MILLEDGEVILLE* CLEAR     70  68  94 NE3       30.09F
$$

GAZ099>101-110>166-200900-
SOUTH GEORGIA

CITY           SKY/WX    TMP DP  RH WIND       PRES   REMARKS
SAVANNAH       PTCLDY    72  68  87 NE9       30.02S
VALDOSTA       CLEAR     70  68  93 N6        29.98F
ALMA           MOCLDY    69  67  93 VRB3      30.01S
ST SIMONS      LGT RAIN  71  68  90 N10       29.95F
FT STEWART     CLOUDY    70  67  91 N10       29.99F
ALBANY         CLOUDY    70  68  93 NE9       30.03F
HUNTER AFB     LGT RAIN  72  72 100 NE7       30.00S
MOODY AFB      PTCLDY    69  67  95 NE7       29.98F
BRUNSWICK      CLOUDY    72  68  88 N5        29.98S


CITY           SKY/WX    TMP DP  RH WIND       PRES   REMARKS
BAINBRIDGE*    PTCLDY    73  72  94 NE9       29.99F
MOULTRIE*      PTCLDY    70  70 100 NE5       30.01F
VIDALIA*       CLOUDY    70  68  94 NE12      30.04S
WAYCROSS*      PTCLDY    72  71  98 NE6       29.99F
DOUGLAS*       MOCLDY    72  68  88 NE9       30.02F
$$


USA.gov is the U.S. government's official web portal to all federal, state and local government web resources and services.